Showing default

INTELSAT 2-F2, 2639

Orbit data source: Space-Track

INTELSAT 2-F2, 2639 is a payload satellite owned by INTELSAT (US) in GEO that was launched on Wed, 11 Jan 1967 UTC via a THOR DELTA E1 launch vehicle from the Air Force Eastern Test Range (AFETR). Payload-class satellites include a variety of spacecraft equipped with specific instruments for various scientific and technological missions. These include communications satellites like Starlink; space stations such as the ISS; scientific satellites like the Hubble; Earth observation satellites from companies like Planet Labs, Umbra, and HawkEye 360; GPS; miniature CubeSats for education and research; and military/defense satellites.

Not visible in the next 10 days
Identifier
2639, 1967-001A
Orbit
GEO
Country
Flag of UnknownUnknown / ITSO
Related business
Manufacturer
Hughes
Mission
Non-operational spacecraft
Bus & Motor
HS-303, SVM-1
Mass
163 kg wet, ~65 kg dry
Launch date (UTC)
1967-01-11 (59 years ago)
Launch vehicle
THOR DELTA E1
Launch site
Air Force Eastern Test Range (AFETR)
Object type
Payload
Rocket body
Debris
Shape & HBR
Unknown
Radar Cross Section
Large (>1 m²)

Expand to show TLE details & history
Last TLE update: 10 hours ago

TLE from 10 hours ago
0 INTELSAT 2-F2
1 02639U 67001A   26037.83496306 -.00000191  00000-0  00000-0 0  9993
2 02639   2.9182  78.6575 0008920 204.9435 129.3163  1.00222835117937
Epoch: 2026-02-06T20:02Z
TLE epoch observation values (Epoch: 2026-02-06T20:02:20.808Z)
Latitude
-1.27977°
Longitude
-24.50073°
Altitude
35,823.785 km
Speed
3.072 km/s
True Right ascension
03h 32m 12s
True Declination
-1° 16' 43"
Sunlit
Object was in daylight at epoch
Visualization orbit readout
Latitude
Unknown
Longitude
Unknown
Altitude
Unknown
Speed
Unknown
Apparent Right ascension
Unknown
Apparent Declination
Unknown
Sunlit
N/A
Visualization observer readout
Local Sidereal Time
08:35:52
Azimuth
Unknown
Elevation
Unknown
Doppler factor
Unknown
Orbital elements
Apogee altitude
35,839.013 km
Perigee altitude
35,763.765 km
Semi-major axis
42,179.526 km
Eccentricity
0.00089
Inclination
2.9182°
RAAN
78.6575°
Arg. of periapsis
204.9435°
True anomaly
129.39532°
Mean anomaly
129.3163°
Eccentric anomaly
129.35582°
Mean motion
0.25055 °/min
Orbital period
1,436.85 mins
BSTAR
0
Loading maneuver chart data...
Computing Atmospheric mass density...

Documentation

Showing up to 5 results
|